Regional Weather Roundup
Issued by NWS

Home | Current Version | Previous Version | Graphics & Text | Print | Product List | Glossary On
Versions: 1 2 3 4 5 6 7 8 9 10 11 12 13 14 15 16 17 18 19 20 21 22 23 24 25 26 27 28 29 30 31 32 33 34 35 36 37 38 39 40 41 42 43 44 45 46 47 48 49 50
783
ASUS43 KOAX 180410
RWRNE

WEATHER ROUNDUP FOR NEBRASKA
NATIONAL WEATHER SERVICE OMAHA NE
1000 PM CST FRI NOV 17 2017

NOTES: SATELLITE DATA IS BEING USED TO AUGMENT CLOUD COVER ABOVE
       12000 FEET.
       "FAIR" INDICATES FEW OR NO CLOUDS BELOW 12,000 FEET WITH NO
       SIGNIFICANT WEATHER AND/OR OBSTRUCTIONS TO VISIBILITY.


NEZ001>004-019>022-054>056-180500-
NEBRASKA PANHANDLE

CITY           SKY/WX    TMP DP  RH WIND       PRES   REMARKS
SCOTTSBLUFF    CLOUDY    40  30  67 NW20G25   29.81R WCI  30
ALLIANCE       CLOUDY    37  35  92 N17       29.76R WCI  27
CHADRON        CLOUDY    37  35  92 NW5       29.80R WCI  33
GORDON         RAIN      35  33  93 N6        29.76R WCI  30
KIMBALL        CLOUDY    37  34  90 N16G24    29.79R WCI  27
SIDNEY         CLOUDY    40  36  86 NW14      29.75R WCI  32
$$

NEZ057>060-069>072-079>082-180500-
SOUTHWEST NEBRASKA

CITY           SKY/WX    TMP DP  RH WIND       PRES   REMARKS
NORTH PLATTE   CLOUDY    41  38  89 N10       29.70R
LEXINGTON      CLOUDY    43  37  78 N14G21    29.68R
MCCOOK         LGT RAIN  43  37  79 N18       29.68R
OGALLALA       DRIZZLE   42  40  95 N8        29.71R
$$

NEZ005>010-023>029-035>040-094-180500-
NORTH CENTRAL NEBRASKA

CITY           SKY/WX    TMP DP  RH WIND       PRES   REMARKS
VALENTINE      LGT RAIN  38  35  89 N5        29.77R WCI  34
AINSWORTH      LGT RAIN  37  35  92 N9        29.73F WCI  31
BROKEN BOW     LGT RAIN  41  38  89 N16       29.69R
O`NEILL        CLOUDY    40  38  93 NW10      29.74R WCI  33
ORD            HVY RAIN  41  38  89 N13       29.71R FOG
THEDFORD       CLOUDY    39  37  90 N5        29.72R
$$

NEZ041-046>049-061>064-073>077-083>087-180500-
SOUTH CENTRAL NEBRASKA

CITY           SKY/WX    TMP DP  RH WIND       PRES   REMARKS
GRAND ISLAND   LGT RAIN  43  36  76 N18       29.65F
AURORA         MOCLDY    42  36  77 N22G31    29.60F
HASTINGS       CLOUDY    42  36  79 N21G31    29.63R
HEBRON         CLOUDY    48  38  70 N9G16     29.56R
HOLDREGE       CLOUDY    43  36  74 N20G26    29.67R
KEARNEY        CLOUDY    42  37  82 N25       29.66R
YORK           CLOUDY    43  39  87 N22G33    29.60F
$$

NEZ011>018-030>034-042>045-180500-
NORTHEAST NEBRASKA

CITY           SKY/WX    TMP DP  RH WIND       PRES   REMARKS
NORFOLK        LGT RAIN  41  39  93 N10       29.66R
ALBION         RAIN      42  38  87 N8        29.66R
BLAIR          CLEAR     47  41  80 N12       29.56R
COLUMBUS       CLOUDY    44  38  79 N17G25    29.66R
FREMONT        PTCLDY    46  40  77 NW15      29.62R
TEKAMAH        MOCLDY    46  39  76 N18       29.61R
WAYNE          RAIN      42  40  91 NW6       29.69R
$$

NEZ050>053-065>068-078-088>093-180500-
SOUTHEAST NEBRASKA

CITY           SKY/WX    TMP DP  RH WIND       PRES   REMARKS
LINCOLN        CLOUDY    49  39  68 N16       29.61R
OMAHA EPPLEY   PTCLDY    45  38  76 NW5       29.55F
BEATRICE       CLOUDY    49  39  67 N14       29.56S
FALLS CITY     CLOUDY    56  55  97 N5        29.48F FOG
NEBRASKA CITY  CLOUDY    55  55 100 N12       29.53R FOG
PLATTSMOUTH    CLOUDY    51  46  82 N7        29.54S
$$

NEZ044-045-051>053-067-180500-
OMAHA AREA

CITY           SKY/WX    TMP DP  RH WIND       PRES   REMARKS
OMAHA EPPLEY   PTCLDY    45  38  76 NW5       29.55F
BLAIR          CLEAR     47  41  80 N12       29.56R
FREMONT        PTCLDY    46  40  77 NW15      29.62R
MILLARD        CLEAR     50  42  73 CALM      29.54F
OFFUTT AFB     CLOUDY    50  43  77 N6        29.54S
PLATTSMOUTH    CLOUDY    51  46  82 N7        29.54S
WAHOO          MOCLDY    47  40  76 N23       29.57R
$$




USA.gov is the U.S. government's official web portal to all federal, state and local government web resources and services.